Flag for New Zealand Weather past 2 weeks in Christchurch, New Zealand

Now
43 °F

Mostly cloudy.


Feels Like: 41 °F
Forecast: 38 / 45 °F
Wind: 3 mph from South

Location: Christchurch Airport

Current Time: Sep 22, 2014 at 2:18:22 AM

Latest Report: Sep 22, 2014 at 2:00 AM


Visibility: N/A

Pressure: 29.27 "Hg

Humidity: 93%

Dew point: 41 °F

Location of ChristchurchLocation

Historic Weather in Christchurch — Graph

°F

Christchurch temperature yesterday

Maximum temperature yesterday: 54 °F (at 1:00 PM)
Minimum temperature yesterday: 43 °F (at 12:00 AM)
Average temperature yesterday: 47 °F

Past Weeks' High & Low Weather Summary

 TemperatureHumidityPressure
High72 °F (Sep 12, 3:30 PM)100% (Sep 7, 5:30 AM)30.36 "Hg (Sep 7, 5:30 AM)
Low30 °F (Sep 11, 4:00 AM)36% (Sep 12, 3:30 PM)29.15 "Hg (Sep 19, 2:00 PM)
Average48 °F78%29.78 "Hg
* Reported Sep 7 1:00 AM — Sep 22 1:00 AM, Christchurch, Weather by CustomWeather, © 2014

Note: Actual official high and low records may vary slightly from our data, if they occured in-between our weather recording intervals... More about our weather records

Advertising

Christchurch weather history for previous 24 hours

 ConditionsComfort  
Time TempWeatherWind HumidityBarometerVisibility
1:00 AM
Sep 22
45 °FMostly cloudy.6 mph87%29.27 "HgN/A
12:30 AM41 °FPassing clouds.3 mph93%29.24 "HgN/A
12:00 AM45 °FPassing clouds.3 mph87%29.24 "HgN/A
11:30 PM
Sep 21
46 °FSprinkles. Passing clouds.7 mph82%29.27 "HgN/A
11:00 PM46 °FMostly cloudy.7 mph82%29.30 "HgN/A
10:30 PM46 °FOvercast.5 mph87%29.27 "HgN/A
10:00 PM46 °FOvercast.6 mph87%29.27 "HgN/A
9:30 PM45 °FOvercast.7 mph87%29.27 "HgN/A
9:00 PM46 °FCool.8 mph82%29.30 "HgN/A
8:30 PM45 °FQuite cool.7 mph87%29.30 "HgN/A
8:00 PM45 °FQuite cool.8 mph81%29.33 "HgN/A
7:30 PM46 °FPassing clouds.10 mph76%29.33 "HgN/A
7:00 PM46 °FPassing clouds.9 mph76%29.33 "HgN/A
6:30 PM46 °FOvercast.10 mph82%29.33 "HgN/A
6:00 PM46 °FOvercast.13 mph82%29.33 "HgN/A
5:30 PM48 °FOvercast.13 mph76%29.33 "HgN/A
5:00 PM48 °FCool.14 mph71%29.36 "HgN/A
4:30 PM48 °FCool.13 mph71%29.36 "HgN/A
4:00 PM52 °FCool.13 mph67%29.36 "HgN/A
3:30 PM50 °FCool.13 mph67%29.36 "HgN/A
3:00 PM52 °FCool.12 mph67%29.39 "HgN/A
2:30 PM52 °FPassing clouds.10 mph72%29.39 "HgN/A
2:00 PM54 °FPartly sunny.3 mph63%29.42 "HgN/A
1:30 PM52 °FPassing clouds.6 mph67%29.42 "HgN/A
1:00 PM54 °FPassing clouds.3 mph63%29.45 "HgN/A
12:30 PM52 °FCool.3 mph62%29.45 "HgN/A
12:00 PM50 °FScattered clouds.1 mph67%29.47 "HgN/A
11:30 AM48 °FMore clouds than sun.2 mph71%29.47 "HgN/A
11:00 AM48 °FMore clouds than sun.2 mph71%29.50 "HgN/A
10:30 AM48 °FMostly cloudy.2 mph76%29.50 "HgN/A
10:00 AM48 °FPartly sunny.3 mph76%29.50 "HgN/A
9:30 AM46 °FMostly cloudy.5 mph76%29.53 "HgN/A
9:00 AM46 °FOvercast.8 mph76%29.53 "HgN/A
8:30 AM45 °FBroken clouds.5 mph87%29.53 "HgN/A
8:00 AM45 °FOvercast.6 mph87%29.53 "HgN/A
7:30 AM43 °FOvercast.6 mph93%29.53 "HgN/A
7:00 AM43 °FOvercast.3 mph93%29.53 "HgN/A
6:30 AM43 °FMore clouds than sun.5 mph87%29.53 "HgN/A
6:00 AM43 °FPartly sunny.7 mph87%29.53 "HgN/A
5:30 AM43 °FOvercast.6 mph93%29.53 "HgN/A
Weather by CustomWeather, © 2014

See weather overviewHow to use our weather pages